Wake Island Airfield, Wake Island

3:08 PM WAKT on August 30, 2015 (GMT +1200)
Wake Island Army Air Field | | Change Station
CLOSE
Current Station
Airport
Location: Wake Island, Wake Island Army,
Elevation: 13 ft
Nearby Weather Stations

Elev 13 ft 19.28 °N, 166.64 °E | Updated 10 minutes ago

Partly Cloudy
Partly Cloudy
88 °F
Feels Like 102 °F
N
8
Wind Variable Wind from NE

Today
High -- | Low -- °F
--% Chance of Precip.
Yesterday
High -- | Low -- °F
Precip. -- in
6:37 AM 7:10 PM
Full, 100% visible
Pressure 29.85 in
Visibility 6.2 miles
Clouds Few 2200 ft
Heat Index 102 °F
Dew Point 78 °F
Humidity 73%
Rainfall 0.60 in
Snow Depth Not available.
UV 9 out of 12
Pollen Not available.
Air Quality Not available.
Flu Activity Not available.
METAR PWAK 300258Z AUTO 04007KT 9999 FEW022 31/26 A2983 RMK AO2 SLP108 T03120258 57015 $
Pressure 29.85 in
Visibility 6.2 miles
Clouds Few 2200 ft
Heat Index 102 °F
Dew Point 78 °F
Humidity 73%
Rainfall 0.60 in
Snow Depth Not available.
UV 9 out of 12
Pollen Not available.
Air Quality Not available.
Flu Activity Not available.
METAR PWAK 300258Z AUTO 04007KT 9999 FEW022 31/26 A2983 RMK AO2 SLP108 T03120258 57015 $

10-Day Weather Forecast

×

Almanac

Astronomy

Aug. 30, 2015 Rise Set
Actual Time
Civil Twilight
Nautical Twilight
Astronomical Twilight
Moon
Length of Visible Light
Length of Day
Tomorrow will be .
, % of the Moon is Illuminated

Today's Extremes

Country Highs Country Lows

Community

WunderPhotos

Upload Photos

1,850,857 photos uploaded!

WunderBlogs® & News

Nearby

Air Quality

  Air Quality AQ Index Pollutant
Not available.

Snow Depth

Station Depth Elevation

Earthquake Activity

City Distance Mag. Time & Date
Minimum magnitude displayed is 2.5.

Coastal Water Temperatures

Place Temperature

Stations

Nearby Weather Stations

Station Location Temp. Windchill Dew Point Humidity Wind Precip. Elev Updated Type